Location: Lake Lucerne
(45.5315°N, 88.8489°W)
Time: 19:58:55
(UTC-05:00)

ARIANE 6 FM1 Upper Stage - Pass Details

Date: 19 September 2024
Orbit: 563 x 594 km, 62.0° (Epoch: 09 October)

Event Time Altitude Azimuth Distance (km) Brightness Sun altitude
Exits shadow 03:52:18 11° 339° (NNW) 1,864 5.4 -28.2°
Maximum altitude 03:55:49 27° 36° (NE) 1,165 4.8 -27.7°
Drops below altitude 10° 03:59:34 10° 94° (E) 1,934 6.0 -27.2°
Sets 04:02:06 0° 107° (ESE) 2,834 6.8 -26.8°
